Location: Overspoor
(51.4747°N, 5.6641°E)
Time: 00:32:18
(UTC+02:00)

DUCHIFAT 1 - Pass Details

Date: 03 July 2022
Orbit: 580 x 596 km, 98.0° (Epoch: 08 August)

Event Time Altitude Azimuth Distance (km) Brightness Sun altitude
Rises 03:03:00 0° 29° (NNE) 2,846 ? -13.4°
Reaches altitude 10° 03:06:00 10° 52° (NE) 1,941 ? -13.3°
Maximum altitude 03:08:30 15° 89° (E) 1,618 ? -13.1°
Drops below altitude 10° 03:11:00 10° 126° (SE) 1,934 ? -13.0°
Enters shadow 03:13:11 - 144° (SE) 2,565 ? -12.9°
